TimeEDT,TemperatureF,Dew PointF,Humidity,Sea Level PressureIn,VisibilityMPH,Wind Direction,Wind SpeedMPH,Gust SpeedMPH,PrecipitationIn,Events,Conditions,WindDirDegrees,DateUTC
12:15 AM,44.6,30.2,57,30.24,10.0,SE,5.8,-,N/A,,Overcast,130,2013-04-24 04:15:00
12:35 AM,42.8,32.0,66,30.22,10.0,SE,5.8,-,N/A,,Overcast,140,2013-04-24 04:35:00
12:55 AM,42.8,33.8,70,30.22,10.0,SSE,3.5,-,N/A,,Overcast,160,2013-04-24 04:55:00
1:15 AM,42.8,33.8,70,30.20,10.0,Calm,Calm,-,N/A,,Overcast,0,2013-04-24 05:15:00
1:35 AM,42.8,33.8,70,30.19,10.0,ESE,4.6,-,N/A,,Overcast,120,2013-04-24 05:35:00
1:55 AM,42.8,33.8,70,30.17,10.0,ESE,4.6,-,N/A,,Overcast,120,2013-04-24 05:55:00
2:15 AM,42.8,35.6,76,30.15,10.0,SE,8.1,-,N/A,,Overcast,130,2013-04-24 06:15:00
2:35 AM,42.8,35.6,76,30.14,10.0,ESE,6.9,-,N/A,,Overcast,120,2013-04-24 06:35:00
2:55 AM,42.8,35.6,76,30.13,10.0,Calm,Calm,-,N/A,,Overcast,0,2013-04-24 06:55:00
3:15 AM,42.8,35.6,76,30.12,10.0,Calm,Calm,-,N/A,,Overcast,0,2013-04-24 07:15:00
3:35 AM,42.8,35.6,76,30.10,10.0,ESE,4.6,-,N/A,,Overcast,110,2013-04-24 07:35:00
3:55 AM,42.8,35.6,76,30.09,10.0,East,5.8,-,N/A,,Overcast,100,2013-04-24 07:55:00
4:15 AM,42.8,35.6,76,30.09,10.0,Calm,Calm,-,N/A,,Overcast,0,2013-04-24 08:15:00
4:35 AM,42.8,35.6,76,30.08,10.0,East,6.9,-,N/A,,Overcast,100,2013-04-24 08:35:00
4:55 AM,42.8,35.6,76,30.07,10.0,ESE,6.9,-,N/A,,Overcast,110,2013-04-24 08:55:00
5:15 AM,42.8,37.4,81,30.07,10.0,ESE,5.8,-,N/A,,Overcast,120,2013-04-24 09:15:00
5:35 AM,42.8,37.4,81,30.07,10.0,East,3.5,-,N/A,,Overcast,100,2013-04-24 09:35:00
5:55 AM,42.8,37.4,81,30.07,10.0,ESE,5.8,-,N/A,,Overcast,110,2013-04-24 09:55:00
6:15 AM,42.8,37.4,81,30.07,10.0,ESE,4.6,-,N/A,,Overcast,110,2013-04-24 10:15:00
6:35 AM,42.8,37.4,81,30.07,9.0,East,4.6,-,N/A,,Overcast,100,2013-04-24 10:35:00
6:55 AM,42.8,37.4,81,30.06,4.0,East,5.8,-,N/A,,Overcast,100,2013-04-24 10:55:00
7:15 AM,42.8,37.4,81,30.06,5.0,ESE,6.9,-,N/A,,Overcast,110,2013-04-24 11:15:00
7:35 AM,42.8,39.2,87,30.06,7.0,East,5.8,-,N/A,,Overcast,90,2013-04-24 11:35:00
7:55 AM,42.8,39.2,87,30.06,5.0,East,4.6,-,N/A,,Overcast,80,2013-04-24 11:55:00
8:15 AM,42.8,39.2,87,30.05,7.0,East,4.6,-,N/A,,Overcast,90,2013-04-24 12:15:00
8:35 AM,42.8,39.2,87,30.04,4.0,East,5.8,-,N/A,,Overcast,80,2013-04-24 12:35:00
8:55 AM,42.8,39.2,87,30.03,5.0,NE,5.8,-,N/A,,Overcast,50,2013-04-24 12:55:00
9:15 AM,44.6,39.2,81,30.02,10.0,ENE,6.9,-,N/A,,Overcast,60,2013-04-24 13:15:00
9:35 AM,44.6,39.2,81,30.01,9.0,NE,4.6,-,N/A,,Overcast,40,2013-04-24 13:35:00
9:55 AM,44.6,39.2,81,30.00,5.0,NNE,3.5,-,N/A,,Overcast,20,2013-04-24 13:55:00
10:15 AM,44.6,39.2,81,29.99,3.0,NE,3.5,-,N/A,,Overcast,40,2013-04-24 14:15:00
10:35 AM,44.6,39.2,81,29.98,10.0,NNE,5.8,-,N/A,,Overcast,20,2013-04-24 14:35:00
10:55 AM,46.4,41.0,81,29.98,10.0,North,3.5,-,N/A,,Overcast,10,2013-04-24 14:55:00
11:15 AM,46.4,41.0,81,29.96,4.0,ENE,4.6,-,N/A,,Overcast,60,2013-04-24 15:15:00
11:35 AM,46.4,42.8,87,29.96,8.0,NE,3.5,-,N/A,,Overcast,40,2013-04-24 15:35:00
11:55 AM,46.4,42.8,87,29.94,2.0,ENE,5.8,-,N/A,,Overcast,60,2013-04-24 15:55:00
12:15 PM,48.2,44.6,87,29.93,2.0,NE,6.9,-,N/A,,Overcast,40,2013-04-24 16:15:00
12:35 PM,48.2,44.6,87,29.92,10.0,NE,5.8,-,N/A,,Overcast,50,2013-04-24 16:35:00
12:55 PM,48.2,44.6,87,29.90,5.0,NE,5.8,-,N/A,,Overcast,50,2013-04-24 16:55:00
1:15 PM,48.2,44.6,87,29.89,3.0,NE,3.5,-,N/A,,Overcast,40,2013-04-24 17:15:00
1:35 PM,50.0,44.6,82,29.87,3.0,NE,6.9,-,N/A,,Overcast,40,2013-04-24 17:35:00
1:55 PM,51.8,44.6,76,29.86,10.0,East,5.8,-,N/A,,Overcast,80,2013-04-24 17:55:00
2:15 PM,51.8,44.6,76,29.84,10.0,ESE,5.8,-,N/A,,Overcast,110,2013-04-24 18:15:00
2:35 PM,51.8,44.6,76,29.84,9.0,East,5.8,-,N/A,,Overcast,80,2013-04-24 18:35:00
2:55 PM,51.8,46.4,82,29.83,7.0,Calm,Calm,-,N/A,,Overcast,0,2013-04-24 18:55:00
3:15 PM,51.8,46.4,82,29.81,10.0,ESE,4.6,-,N/A,,Overcast,110,2013-04-24 19:15:00
3:35 PM,51.8,46.4,82,29.79,10.0,ESE,8.1,-,N/A,,Overcast,120,2013-04-24 19:35:00
3:55 PM,53.6,46.4,77,29.78,10.0,East,8.1,-,N/A,,Overcast,100,2013-04-24 19:55:00
4:15 PM,53.6,46.4,77,29.76,10.0,ESE,9.2,-,N/A,,Overcast,120,2013-04-24 20:15:00
4:35 PM,53.6,46.4,77,29.74,10.0,SE,9.2,-,N/A,,Overcast,140,2013-04-24 20:35:00
4:55 PM,53.6,46.4,77,29.73,10.0,SE,6.9,-,N/A,,Overcast,140,2013-04-24 20:55:00
5:15 PM,53.6,46.4,77,29.72,10.0,ESE,5.8,-,N/A,,Overcast,120,2013-04-24 21:15:00
5:35 PM,53.6,46.4,77,29.71,10.0,SE,6.9,-,N/A,,Overcast,130,2013-04-24 21:35:00
6:15 PM,53.6,46.4,77,29.72,10.0,SSE,5.8,-,N/A,,Overcast,160,2013-04-24 22:15:00
6:35 PM,53.6,48.2,82,29.72,10.0,SE,5.8,-,N/A,,Overcast,130,2013-04-24 22:35:00
6:55 PM,53.6,48.2,82,29.72,10.0,ESE,4.6,-,N/A,,Overcast,120,2013-04-24 22:55:00
7:15 PM,53.6,48.2,82,29.71,10.0,Calm,Calm,-,N/A,,Overcast,0,2013-04-24 23:15:00
7:35 PM,53.6,46.4,77,29.70,10.0,Calm,Calm,-,N/A,,Overcast,0,2013-04-24 23:35:00
7:55 PM,53.6,46.4,77,29.72,10.0,West,5.8,-,N/A,,Overcast,280,2013-04-24 23:55:00
8:15 PM,53.6,46.4,77,29.73,10.0,West,4.6,-,N/A,,Overcast,260,2013-04-25 00:15:00
8:35 PM,51.8,48.2,88,29.72,2.0,Calm,Calm,-,N/A,,Overcast,0,2013-04-25 00:35:00
8:55 PM,51.8,48.2,88,29.71,2.5,Calm,Calm,-,N/A,,Overcast,0,2013-04-25 00:55:00
9:15 PM,51.8,48.2,88,29.70,1.0,ESE,3.5,-,N/A,,Overcast,120,2013-04-25 01:15:00
9:35 PM,51.8,48.2,88,29.67,5.0,East,6.9,-,N/A,,Overcast,100,2013-04-25 01:35:00
9:55 PM,51.8,48.2,88,29.68,10.0,SE,4.6,-,N/A,,Overcast,130,2013-04-25 01:55:00
10:55 PM,50.0,46.4,87,29.68,10.0,South,11.5,-,N/A,,Overcast,170,2013-04-25 02:55:00
11:15 PM,50.0,44.6,82,29.68,10.0,SSE,11.5,-,N/A,,Overcast,160,2013-04-25 03:15:00
11:35 PM,48.2,44.6,87,29.67,10.0,South,11.5,-,N/A,,Overcast,170,2013-04-25 03:35:00
11:55 PM,48.2,44.6,87,29.67,10.0,SSE,15.0,18.4,N/A,,Overcast,150,2013-04-25 03:55:00